This is the latest recevied weather packets stored in our database for station/object W4GAP. If no packets are shown the sender has not sent any weather packets the latest 10 day(s).
| Time | Temp. | Humidity | Pressure | Rain* | Wind** | Luminosity | Snow |
|---|---|---|---|---|---|---|---|
| 1778077458 | 21.11° C | 76% | 1012.6 hPa | 0 mm | - | 33 W/m² | - |
| 1778077156 | 21.11° C | 75% | 1013 hPa | 0 mm | - | 31 W/m² | - |
| 1778076854 | 21.11° C | 75% | 1012.7 hPa | 0 mm | - | 39 W/m² | - |
| 1778076552 | 21.11° C | 75% | 1012.4 hPa | 0 mm | - | 55 W/m² | - |
| 1778076248 | 21.11° C | 76% | 1012.3 hPa | 0 mm | - | 53 W/m² | - |
| 1778075946 | 21.11° C | 76% | 1012.3 hPa | 0 mm | - | 39 W/m² | - |
| 1778075642 | 21.11° C | 76% | 1012.1 hPa | 0 mm | - | 47 W/m² | - |
| 1778075338 | 20.56° C | 76% | 1012 hPa | 0 mm | - | 52 W/m² | - |
| 1778075035 | 21.11° C | 76% | 1012 hPa | 0 mm | - | 35 W/m² | - |
| 1778074732 | 21.11° C | 76% | 1012 hPa | 0 mm | - | 32 W/m² | - |
| 1778074428 | 21.11° C | 78% | 1011.9 hPa | 0 mm | - | 37 W/m² | - |
| 1778074125 | 20.56° C | 79% | 1011.7 hPa | 0 mm | - | 55 W/m² | - |
| 1778073822 | 20.56° C | 79% | 1011.8 hPa | 0 mm | - | 55 W/m² | - |
| 1778073520 | 20.56° C | 79% | 1011.8 hPa | 0 mm | - | 62 W/m² | - |
| 1778073216 | 20° C | 80% | 1011.7 hPa | 0 mm | - | 47 W/m² | - |
| 1778072914 | 20° C | 81% | 1011.6 hPa | 0 mm | - | 46 W/m² | - |
| 1778072610 | 20° C | 81% | 1011.8 hPa | 0 mm | - | 42 W/m² | - |
| 1778072308 | 20° C | 82% | 1011.9 hPa | 0 mm | - | 34 W/m² | - |
| 1778072006 | 20° C | 81% | 1011.8 hPa | 0 mm | - | 32 W/m² | - |
| 1778071704 | 19.44° C | 81% | 1011.6 hPa | 0 mm | - | 26 W/m² | - |
| 1778071401 | 19.44° C | 82% | 1011.6 hPa | 0 mm | - | 21 W/m² | - |
| 1778071099 | 19.44° C | 82% | 1011.7 hPa | 0 mm | - | 28 W/m² | - |
| 1778070797 | 19.44° C | 82% | 1011.8 hPa | 0 mm | - | 19 W/m² | - |
| 1778070494 | 19.44° C | 82% | 1011.7 hPa | 0 mm | - | 13 W/m² | - |
| 1778070191 | 19.44° C | 82% | 1011.5 hPa | 0 mm | - | 17 W/m² | - |
* Rain latest hour (hover to see other rain measurements)
** Current wind speed in m/s (hover to see current wind gust speed)